Location: Igloolik
(69.3800°N, 81.8000°W)
Time: 20:45:04
(UTC-05:00)

Amateur Radio Satellites - All Passes

Search period start: 18 September 2014 20:15
Search period end: 19 September 2014 20:15
Location: Igloolik, 69.3800°N, 81.8000°W

Satellite Date Start Highest point End Downlink Frequencies (MHz)
Time Altitude Azimuth
PCSat 18 Sep 20:17:43 20:22:31 33° 227° (SW) 20:27:18 145.825 MHz
Saudisat 1A 18 Sep 20:19:41 20:23:47 38° 160° (SSE) 20:27:55 436.775 MHz
UKube-1 18 Sep 20:24:35 20:28:57 75° 248° (WSW) 20:33:20 145.840 MHz, 145.915 MHz
HO-68 18 Sep 20:31:39 20:38:40 56° 255° (WSW) 20:45:45 435.675 MHz FM
OPAL 18 Sep 20:45:33 20:50:23 39° 329° (NNW) 20:55:10 ?
KITSAT 1 18 Sep 21:20:28 21:28:08 49° 140° (SE) 21:35:49 435.175 FM
STRAND 1 18 Sep 21:24:46 21:29:48 57° 309° (NW) 21:34:50 ?
FUNcube-1 18 Sep 21:31:57 21:36:27 67° 253° (WSW) 21:41:04 145.950 - 145.970 MHz USB
Sapphire 18 Sep 21:34:13 21:37:52 19° 243° (WSW) 21:41:31 437.095 MHz 1200 baud AX-25 AFSK
Oscar 11 18 Sep 21:45:44 21:49:48 36° 264° (W) 21:53:53 145.825 FM, Beacon 2401.500 USB
Saudisat 1A 18 Sep 21:58:39 22:02:53 46° 183° (S) 22:07:08 436.775 MHz
PCSat 18 Sep 22:01:54 22:04:33 14° 250° (WSW) 22:07:12 145.825 MHz
UKube-1 18 Sep 22:02:17 22:05:51 24° 271° (W) 22:09:26 145.840 MHz, 145.915 MHz
HO-68 18 Sep 22:22:22 22:28:02 25° 281° (W) 22:33:44 435.675 MHz FM
OPAL 18 Sep 22:24:00 22:28:24 28° 353° (N) 22:32:48 ?
SO-50 18 Sep 22:24:54 22:25:39 10° 117° (ESE) 22:26:25 436.795 FM
STRAND 1 18 Sep 23:03:58 23:08:23 30° 332° (NNW) 23:12:48 ?
FUNcube-1 18 Sep 23:10:06 23:13:41 23° 276° (W) 23:17:20 145.950 - 145.970 MHz USB
KITSAT 1 18 Sep 23:14:52 23:22:54 69° 167° (SSE) 23:30:56 435.175 FM
Oscar 11 18 Sep 23:25:31 23:27:17 12° 287° (WNW) 23:29:03 145.825 FM, Beacon 2401.500 USB
Saudisat 1A 18 Sep 23:37:56 23:41:56 34° 207° (SSW) 23:45:56 436.775 MHz
Oscar 16 18 Sep 23:52:10 23:54:10 12° 67° (ENE) 23:56:10 437.025 USB, Beacon 2401.1428
SO-50 19 Sep 00:01:05 00:04:50 25° 140° (SE) 00:08:41 436.795 FM
OPAL 19 Sep 00:01:46 00:06:18 31° 17° (NNE) 00:10:50 ?
UOSAT-12 19 Sep 00:08:01 00:08:38 10° 116° (ESE) 00:09:16 437.025 FM, 437.400 FM
JAS-1B 19 Sep 00:25:16 00:28:30 14° 64° (ENE) 00:31:36 435.800 - 435.900 CW/SSB
ITAMSAT 1 19 Sep 00:33:47 00:35:46 12° 68° (ENE) 00:37:44 435.822 SSB
Uribyol 2 19 Sep 00:37:58 00:40:23 13° 70° (ENE) 00:42:47 436.500 FM
STRAND 1 19 Sep 00:42:34 00:46:30 23° 356° (N) 00:50:26 ?
Oscar 19 19 Sep 00:51:55 00:55:57 22° 82° (E) 00:59:57 437.125 CW, 437.150 USB
AO-27 19 Sep 01:07:54 01:11:20 17° 77° (ENE) 01:14:46 436.795 MHz FM
KITSAT 1 19 Sep 01:09:58 01:18:00 68° 195° (SSW) 01:26:00 435.175 FM
Saudisat 1A 19 Sep 01:17:41 01:20:34 17° 229° (SW) 01:23:26 436.775 MHz
Oscar 16 19 Sep 01:30:32 01:35:14 33° 92° (E) 01:39:54 437.025 USB, Beacon 2401.1428
OPAL 19 Sep 01:39:27 01:44:29 49° 40° (NE) 01:49:32 ?
SO-50 19 Sep 01:40:16 01:44:39 42° 163° (SSE) 01:49:08 436.795 FM
UOSAT-12 19 Sep 01:43:35 01:47:24 25° 139° (SE) 01:51:15 437.025 FM, 437.400 FM
AO-Echo 19 Sep 01:50:12 01:54:15 27° 89° (E) 01:58:21 ?
Gurwin Techsat 1B 19 Sep 01:55:44 01:59:42 21° 80° (E) 02:03:39 435.225 FM
ITAMSAT 1 19 Sep 02:12:16 02:16:58 33° 92° (E) 02:21:39 435.822 SSB
JAS-1B 19 Sep 02:15:36 02:21:27 38° 92° (E) 02:26:46 435.800 - 435.900 CW/SSB
Uribyol 2 19 Sep 02:16:41 02:21:29 35° 94° (E) 02:26:16 436.500 FM
STRAND 1 19 Sep 02:20:22 02:24:33 26° 20° (NNE) 02:28:45 ?
AO-7 19 Sep 02:28:45 02:34:00 18° 66° (ENE) 02:39:13 29.400 - 29.500 MHz
Oscar 19 19 Sep 02:31:11 02:36:21 60° 106° (ESE) 02:41:29 437.125 CW, 437.150 USB
TMSAT-1 19 Sep 02:33:14 02:37:40 26° 85° (E) 02:42:04 436.925 FM
AO-27 19 Sep 02:47:08 02:52:11 46° 100° (E) 02:57:13 436.795 MHz FM
Oscar 10/S400 19 Sep 02:51:08 03:06:39 11° 235° (SW) 03:27:05 145.825 - 145.975 CW/USB, Beacon 145.810 USB
Uosat F 19 Sep 03:00:00 03:02:31 14° 72° (ENE) 03:05:01 435.120 FM
RS-15 19 Sep 03:02:49 03:09:49 20° 97° (E) 03:16:50 29.354 - 29.394 USB, Beacon 29.352 USB
KITSAT 1 19 Sep 03:05:05 03:12:43 47° 221° (SW) 03:20:18 435.175 FM
Oscar 16 19 Sep 03:09:59 03:15:15 87° 115° (ESE) 03:20:28 437.025 USB, Beacon 2401.1428
OPAL 19 Sep 03:18:02 03:23:17 77° 243° (WSW) 03:28:34 ?
SO-50 19 Sep 03:20:16 03:24:45 47° 187° (S) 03:29:21 436.795 FM
UOSAT-12 19 Sep 03:22:20 03:26:48 42° 162° (SSE) 03:31:17 437.025 FM, 437.400 FM
AO-Echo 19 Sep 03:29:00 03:33:46 78° 112° (ESE) 03:38:38 ?
Gurwin Techsat 1B 19 Sep 03:35:36 03:40:51 55° 103° (ESE) 03:46:05 435.225 FM
JAS-2 19 Sep 03:47:07 03:48:51 11° 64° (ENE) 03:50:38 435.800 - 435.900 CW/SSB, 435.910 FM
ITAMSAT 1 19 Sep 03:51:53 03:57:08 86° 115° (ESE) 04:02:23 435.822 SSB
Uribyol 2 19 Sep 03:56:17 04:01:33 88° 296° (WNW) 04:06:49 436.500 FM
STRAND 1 19 Sep 03:58:06 04:02:56 44° 44° (NE) 04:07:48 ?
JAS-1B 19 Sep 04:06:31 04:12:58 86° 300° (WNW) 04:18:43 435.800 - 435.900 CW/SSB
Oscar 19 19 Sep 04:10:43 04:15:49 56° 309° (NW) 04:20:53 437.125 CW, 437.150 USB
TMSAT-1 19 Sep 04:13:11 04:18:31 69° 109° (ESE) 04:23:50 436.925 FM
AO-7 19 Sep 04:21:50 04:29:32 40° 93° (E) 04:37:12 29.400 - 29.500 MHz
AO-27 19 Sep 04:26:50 04:32:02 70° 304° (WNW) 04:37:14 436.795 MHz FM
Hamsat 19 Sep 04:36:09 04:38:05 13° 73° (ENE) 04:39:59 145.90 MHz
Uosat F 19 Sep 04:38:06 04:42:47 37° 96° (E) 04:47:28 435.120 FM
Oscar 16 19 Sep 04:49:30 04:54:23 42° 318° (NW) 04:59:15 437.025 USB, Beacon 2401.1428
OPAL 19 Sep 04:58:24 05:02:57 29° 266° (W) 05:07:31 ?
KITSAT 1 19 Sep 05:00:21 05:06:29 25° 248° (WSW) 05:12:35 435.175 FM
SO-50 19 Sep 05:00:32 05:04:45 33° 210° (SSW) 05:09:03 436.795 FM
UOSAT-12 19 Sep 05:01:56 05:06:29 48° 185° (S) 05:11:03 437.025 FM, 437.400 FM
AO-Echo 19 Sep 05:07:59 05:12:26 42° 314° (NW) 05:16:58 ?
RS-15 19 Sep 05:09:10 05:19:01 42° 126° (SE) 05:28:55 29.354 - 29.394 USB, Beacon 29.352 USB
Gurwin Techsat 1B 19 Sep 05:15:46 05:21:02 61° 307° (NW) 05:26:16 435.225 FM
JAS-2 19 Sep 05:31:03 05:35:56 30° 89° (E) 05:41:17 435.800 - 435.900 CW/SSB, 435.910 FM
ITAMSAT 1 19 Sep 05:31:32 05:36:26 42° 319° (NW) 05:41:19 435.822 SSB
Uribyol 2 19 Sep 05:35:55 05:40:46 40° 320° (NW) 05:45:38 436.500 FM
STRAND 1 19 Sep 05:36:52 05:42:00 80° 247° (WSW) 05:47:10 ?
Oscar 19 19 Sep 05:50:03 05:54:31 30° 332° (NNW) 05:58:58 437.125 CW, 437.150 USB
TMSAT-1 19 Sep 05:53:18 05:58:27 51° 312° (NW) 06:03:34 436.925 FM
JAS-1B 19 Sep 05:57:12 06:03:18 43° 327° (NNW) 06:08:45 435.800 - 435.900 CW/SSB
AO-27 19 Sep 06:06:26 06:11:05 34° 327° (NNW) 06:15:44 436.795 MHz FM
Hamsat 19 Sep 06:11:13 06:15:17 38° 96° (E) 06:19:17 145.90 MHz
AO-7 19 Sep 06:15:10 06:23:32 80° 120° (ESE) 06:31:52 29.400 - 29.500 MHz
Uosat F 19 Sep 06:17:01 06:22:05 82° 299° (WNW) 06:27:07 435.120 FM
Oscar 16 19 Sep 06:28:39 06:32:53 26° 342° (NNW) 06:37:05 437.025 USB, Beacon 2401.1428
SO-67 19 Sep 06:32:12 06:34:27 16° 84° (E) 06:36:41 435.3500 MHz FM
SO-50 19 Sep 06:41:19 06:44:17 17° 232° (SW) 06:47:18 436.795 FM
UOSAT-12 19 Sep 06:41:48 06:46:05 34° 209° (SSW) 06:50:22 437.025 FM, 437.400 FM
OPAL 19 Sep 06:42:36 06:43:38 11° 290° (WNW) 06:44:39 ?
AO-Echo 19 Sep 06:46:43 06:50:27 24° 338° (NNW) 06:54:12 ?
Gurwin Techsat 1B 19 Sep 06:55:45 07:00:25 32° 330° (NNW) 07:05:04 435.225 FM
ITAMSAT 1 19 Sep 07:10:50 07:15:04 26° 342° (NNW) 07:19:19 435.822 SSB
Uribyol 2 19 Sep 07:15:09 07:19:22 26° 344° (NNW) 07:23:35 436.500 FM
JAS-2 19 Sep 07:16:22 07:21:53 78° 112° (ESE) 07:28:03 435.800 - 435.900 CW/SSB, 435.910 FM
STRAND 1 19 Sep 07:17:30 07:21:57 29° 270° (W) 07:26:25 ?
RS-15 19 Sep 07:19:08 07:29:49 64° 156° (SSE) 07:40:40 29.354 - 29.394 USB, Beacon 29.352 USB
Oscar 19 19 Sep 07:28:46 07:32:46 23° 356° (N) 07:36:45 437.125 CW, 437.150 USB
TMSAT-1 19 Sep 07:33:09 07:37:38 29° 336° (NNW) 07:42:07 436.925 FM
HO-68 19 Sep 07:42:40 07:47:50 21° 73° (ENE) 07:52:58 435.675 MHz FM
AO-27 19 Sep 07:45:30 07:49:36 24° 351° (N) 07:53:41 436.795 MHz FM
JAS-1B 19 Sep 07:47:07 07:52:55 31° 354° (N) 07:58:05 435.800 - 435.900 CW/SSB
Hamsat 19 Sep 07:47:15 07:51:35 69° 299° (WNW) 07:55:50 145.90 MHz
Uosat F 19 Sep 07:55:57 08:00:33 37° 322° (NW) 08:05:08 435.120 FM
MaSat-1 19 Sep 07:58:16 08:00:44 14° 109° (ESE) 08:03:08 437.345 MHz
SO-67 19 Sep 08:04:44 08:08:11 60° 106° (ESE) 08:11:38 435.3500 MHz FM
Oscar 16 19 Sep 08:07:01 08:11:03 23° 6° (N) 08:15:05 437.025 USB, Beacon 2401.1428
AO-7 19 Sep 08:08:11 08:16:19 62° 326° (NW) 08:24:26 29.400 - 29.500 MHz
UOSAT-12 19 Sep 08:22:08 08:25:13 17° 232° (SW) 08:28:18 437.025 FM, 437.400 FM
AO-Echo 19 Sep 08:24:44 08:28:05 20° 2° (N) 08:31:27 ?
Gurwin Techsat 1B 19 Sep 08:35:09 08:39:18 24° 354° (N) 08:43:27 435.225 FM
ITAMSAT 1 19 Sep 08:49:22 08:53:25 24° 6° (N) 08:57:29 435.822 SSB
Uribyol 2 19 Sep 08:53:35 08:57:40 24° 8° (N) 09:01:46 436.500 FM
JAS-2 19 Sep 09:01:45 09:06:57 48° 315° (NW) 09:12:40 435.800 - 435.900 CW/SSB, 435.910 FM
STRAND 1 19 Sep 09:01:59 09:02:56 11° 295° (WNW) 09:03:54 ?
Oscar 19 19 Sep 09:06:40 09:10:56 26° 20° (NNE) 09:15:13 437.125 CW, 437.150 USB
FUNcube-1 19 Sep 09:07:04 09:09:38 15° 74° (ENE) 09:12:12 145.950 - 145.970 MHz USB
TMSAT-1 19 Sep 09:12:18 09:16:25 23° 360° (N) 09:20:31 436.925 FM
Oscar 11 19 Sep 09:18:23 09:21:51 22° 86° (E) 09:25:18 145.825 FM, Beacon 2401.500 USB
Hamsat 19 Sep 09:23:24 09:27:06 28° 322° (NW) 09:30:46 145.90 MHz
AO-27 19 Sep 09:23:46 09:27:57 25° 15° (NNE) 09:32:08 436.795 MHz FM
HO-68 19 Sep 09:30:33 09:37:28 47° 99° (E) 09:44:22 435.675 MHz FM
RS-15 19 Sep 09:30:40 09:41:28 70° 187° (S) 09:52:32 29.354 - 29.394 USB, Beacon 29.352 USB
MaSat-1 19 Sep 09:32:02 09:36:29 34° 131° (SE) 09:40:38 437.345 MHz
Uosat F 19 Sep 09:34:28 09:38:25 24° 346° (NNW) 09:42:23 435.120 FM
UKube-1 19 Sep 09:34:39 09:38:29 29° 93° (E) 09:42:19 145.840 MHz, 145.915 MHz
JAS-1B 19 Sep 09:36:05 09:42:23 36° 21° (NNE) 09:47:53 435.800 - 435.900 CW/SSB
SO-67 19 Sep 09:37:56 09:41:09 36° 307° (NW) 09:44:22 435.3500 MHz FM
Oscar 16 19 Sep 09:44:48 09:49:21 31° 30° (NNE) 09:53:53 437.025 USB, Beacon 2401.1428
AO-7 19 Sep 10:00:31 10:08:19 48° 353° (N) 10:16:07 29.400 - 29.500 MHz
AO-Echo 19 Sep 10:01:55 10:05:45 25° 26° (NNE) 10:09:36 ?
Gurwin Techsat 1B 19 Sep 10:13:44 10:18:05 26° 19° (NNE) 10:22:27 435.225 FM
ITAMSAT 1 19 Sep 10:27:18 10:31:52 32° 30° (NNE) 10:36:27 435.822 SSB
Uribyol 2 19 Sep 10:31:31 10:36:08 33° 32° (NNE) 10:40:46 436.500 FM
FUNcube-1 19 Sep 10:42:51 10:47:16 41° 97° (E) 10:51:40 145.950 - 145.970 MHz USB
Oscar 19 19 Sep 10:44:32 10:49:28 45° 44° (NE) 10:54:25 437.125 CW, 437.150 USB
JAS-2 19 Sep 10:46:46 10:51:16 28° 340° (NNW) 10:56:07 435.800 - 435.900 CW/SSB, 435.910 FM
TMSAT-1 19 Sep 10:50:43 10:55:11 29° 24° (NNE) 10:59:40 436.925 FM
Oscar 11 19 Sep 10:54:25 10:58:48 69° 108° (ESE) 11:03:10 145.825 FM, Beacon 2401.500 USB
Hamsat 19 Sep 10:59:14 11:02:04 17° 345° (NNW) 11:04:53 145.90 MHz
AO-27 19 Sep 11:01:45 11:06:33 39° 39° (NE) 11:11:23 436.795 MHz FM
MaSat-1 19 Sep 11:08:00 11:12:53 67° 153° (SSE) 11:17:20 437.345 MHz
UKube-1 19 Sep 11:10:51 11:15:15 90° 115° (ESE) 11:19:38 145.840 MHz, 145.915 MHz
SO-67 19 Sep 11:11:20 11:13:29 16° 329° (NNW) 11:15:38 435.3500 MHz FM
Uosat F 19 Sep 11:12:10 11:16:03 23° 10° (N) 11:19:57 435.120 FM
HO-68 19 Sep 11:18:37 11:25:51 84° 304° (NW) 11:33:03 435.675 MHz FM
Oscar 16 19 Sep 11:22:59 11:28:08 61° 54° (NE) 11:33:17 437.025 USB, Beacon 2401.1428
JAS-1B 19 Sep 11:25:02 11:32:19 58° 46° (NE) 11:38:29 435.800 - 435.900 CW/SSB
AO-Echo 19 Sep 11:39:19 11:43:50 49° 50° (NE) 11:48:24 ?
RS-15 19 Sep 11:42:25 11:52:52 55° 218° (SW) 12:03:37 29.354 - 29.394 USB, Beacon 29.352 USB
Gurwin Techsat 1B 19 Sep 11:52:11 11:57:12 43° 43° (NE) 12:02:13 435.225 FM
AO-7 19 Sep 11:52:13 12:00:09 52° 20° (NNE) 12:08:04 29.400 - 29.500 MHz
ITAMSAT 1 19 Sep 12:05:41 12:10:49 63° 54° (NE) 12:15:59 435.822 SSB
Uribyol 2 19 Sep 12:09:57 12:15:06 67° 56° (NE) 12:20:19 436.500 FM
FUNcube-1 19 Sep 12:19:21 12:23:58 70° 300° (WNW) 12:28:36 145.950 - 145.970 MHz USB
Oscar 19 19 Sep 12:23:26 12:28:40 80° 247° (WSW) 12:33:56 437.125 CW, 437.150 USB
TMSAT-1 19 Sep 12:29:15 12:34:23 51° 48° (NE) 12:39:31 436.925 FM
Sapphire 19 Sep 12:29:38 12:33:31 20° 119° (ESE) 12:37:25 437.095 MHz 1200 baud AX-25 AFSK
Oscar 11 19 Sep 12:30:46 12:34:55 42° 311° (NW) 12:39:03 145.825 FM, Beacon 2401.500 USB
JAS-2 19 Sep 12:30:59 12:35:12 25° 5° (N) 12:39:40 435.800 - 435.900 CW/SSB, 435.910 FM
Hamsat 19 Sep 12:34:07 12:36:47 16° 8° (N) 12:39:26 145.90 MHz
AO-27 19 Sep 12:40:35 12:45:47 86° 62° (ENE) 12:51:02 436.795 MHz FM
SO-67 19 Sep 12:44:48 12:45:24 10° 352° (N) 12:45:59 435.3500 MHz FM
MaSat-1 19 Sep 12:44:50 12:49:41 89° 355° (N) 12:54:01 437.345 MHz
UKube-1 19 Sep 12:47:13 12:51:12 35° 318° (NW) 12:55:11 145.840 MHz, 145.915 MHz
Uosat F 19 Sep 12:49:24 12:53:52 33° 34° (NE) 12:58:21 435.120 FM
PCSat 19 Sep 12:55:48 13:00:14 26° 126° (SE) 13:04:41 145.825 MHz
Oscar 16 19 Sep 13:02:34 13:07:41 54° 257° (WSW) 13:12:49 437.025 USB, Beacon 2401.1428
HO-68 19 Sep 13:06:23 13:13:13 49° 329° (NNW) 13:20:03 435.675 MHz FM
JAS-1B 19 Sep 13:15:23 13:23:04 71° 250° (WSW) 13:29:31 435.800 - 435.900 CW/SSB
AO-Echo 19 Sep 13:17:58 13:22:39 63° 253° (WSW) 13:27:23 ?
Gurwin Techsat 1B 19 Sep 13:31:38 13:36:59 84° 246° (WSW) 13:42:21 435.225 FM
AO-7 19 Sep 13:44:08 13:52:26 77° 46° (NE) 14:00:44 29.400 - 29.500 MHz
ITAMSAT 1 19 Sep 13:45:29 13:50:33 52° 257° (WSW) 13:55:40 435.822 SSB
Uribyol 2 19 Sep 13:49:52 13:54:53 48° 259° (W) 13:59:58 436.500 FM
RS-15 19 Sep 13:54:05 14:03:03 31° 247° (WSW) 14:12:14 29.354 - 29.394 USB, Beacon 29.352 USB
FUNcube-1 19 Sep 13:55:53 13:59:55 30° 322° (NW) 14:03:57 145.950 - 145.970 MHz USB
Oscar 19 19 Sep 14:04:13 14:08:46 30° 271° (W) 14:13:21 437.125 CW, 437.150 USB
Oscar 11 19 Sep 14:07:01 14:10:22 22° 334° (NNW) 14:13:42 145.825 FM, Beacon 2401.500 USB
Hamsat 19 Sep 14:08:12 14:11:38 23° 31° (NNE) 14:15:03 145.90 MHz
TMSAT-1 19 Sep 14:09:00 14:14:18 69° 251° (WSW) 14:19:38 436.925 FM
Sapphire 19 Sep 14:10:48 14:15:54 43° 143° (SE) 14:21:01 437.095 MHz 1200 baud AX-25 AFSK
JAS-2 19 Sep 14:14:35 14:19:14 34° 31° (NNE) 14:24:09 435.800 - 435.900 CW/SSB, 435.910 FM
SO-67 19 Sep 14:16:05 14:17:11 11° 15° (NNE) 14:18:18 435.3500 MHz FM
AO-27 19 Sep 14:21:06 14:25:53 36° 265° (W) 14:30:42 436.795 MHz FM
MaSat-1 19 Sep 14:21:50 14:26:33 79° 199° (SSW) 14:30:40 437.345 MHz
UKube-1 19 Sep 14:23:22 14:26:34 20° 341° (NNW) 14:29:47 145.840 MHz, 145.915 MHz
Uosat F 19 Sep 14:27:14 14:32:13 71° 57° (ENE) 14:37:14 435.120 FM
PCSat 19 Sep 14:37:35 14:42:50 51° 150° (SSE) 14:48:06 145.825 MHz
Oscar 16 19 Sep 14:44:24 14:48:12 20° 280° (W) 14:52:02 437.025 USB, Beacon 2401.1428
HO-68 19 Sep 14:53:29 14:59:57 38° 355° (N) 15:06:26 435.675 MHz FM
AO-Echo 19 Sep 14:58:45 15:02:23 22° 276° (W) 15:06:02 ?
JAS-1B 19 Sep 15:08:14 15:14:49 31° 274° (W) 15:20:32 435.800 - 435.900 CW/SSB
Gurwin Techsat 1B 19 Sep 15:12:55 15:17:40 32° 269° (W) 15:22:27 435.225 FM
OPAL 19 Sep 15:14:59 15:16:21 11° 71° (ENE) 15:17:42 ?
ITAMSAT 1 19 Sep 15:27:35 15:31:16 19° 281° (W) 15:34:58 435.822 SSB
FUNcube-1 19 Sep 15:32:04 15:35:18 19° 345° (NNW) 15:38:34 145.950 - 145.970 MHz USB
Uribyol 2 19 Sep 15:32:09 15:35:39 18° 283° (WNW) 15:39:11 436.500 FM
AO-7 19 Sep 15:37:31 15:45:43 59° 252° (WSW) 15:53:57 29.400 - 29.500 MHz
Oscar 11 19 Sep 15:42:39 15:45:25 17° 357° (N) 15:48:10 145.825 FM, Beacon 2401.500 USB
Hamsat 19 Sep 15:42:44 15:46:57 49° 54° (NE) 15:51:09 145.90 MHz
SO-67 19 Sep 15:46:39 15:49:12 19° 37° (NE) 15:51:45 435.3500 MHz FM
Oscar 19 19 Sep 15:48:35 15:49:55 11° 295° (WNW) 15:51:16 437.125 CW, 437.150 USB
TMSAT-1 19 Sep 15:50:46 15:55:10 26° 275° (W) 15:59:35 436.925 FM
Sapphire 19 Sep 15:53:31 15:58:55 67° 167° (SSE) 16:04:20 437.095 MHz 1200 baud AX-25 AFSK
JAS-2 19 Sep 15:58:43 16:03:52 70° 57° (ENE) 16:09:18 435.800 - 435.900 CW/SSB, 435.910 FM
UKube-1 19 Sep 15:58:44 16:01:39 18° 4° (N) 16:04:34 145.840 MHz, 145.915 MHz
MaSat-1 19 Sep 15:58:45 16:03:02 42° 223° (SW) 16:06:47 437.345 MHz
AO-27 19 Sep 16:04:31 16:07:00 13° 290° (WNW) 16:09:29 436.795 MHz FM
Uosat F 19 Sep 16:06:34 16:11:22 44° 260° (W) 16:16:11 435.120 FM
RS-15 19 Sep 16:07:28 16:11:21 13° 277° (W) 16:15:16 29.354 - 29.394 USB, Beacon 29.352 USB
PCSat 19 Sep 16:20:33 16:25:58 70° 174° (S) 16:31:24 145.825 MHz
HO-68 19 Sep 16:39:57 16:46:35 43° 21° (NNE) 16:53:15 435.675 MHz FM
OPAL 19 Sep 16:52:23 16:57:00 30° 95° (E) 17:01:33 ?
Gurwin Techsat 1B 19 Sep 16:57:25 16:59:25 12° 294° (WNW) 17:01:24 435.225 FM
JAS-1B 19 Sep 17:05:11 17:07:54 12° 300° (WNW) 17:10:28 435.800 - 435.900 CW/SSB
FUNcube-1 19 Sep 17:07:21 17:10:27 18° 9° (N) 17:13:35 145.950 - 145.970 MHz USB
Saudisat 1A 19 Sep 17:17:13 17:18:39 11° 121° (ESE) 17:20:06 436.775 MHz
Oscar 11 19 Sep 17:17:16 17:20:25 20° 21° (NNE) 17:23:33 145.825 FM, Beacon 2401.500 USB
SO-67 19 Sep 17:18:19 17:21:42 52° 59° (ENE) 17:25:07 435.3500 MHz FM
Hamsat 19 Sep 17:18:40 17:22:58 56° 256° (WSW) 17:27:16 145.90 MHz
STRAND 1 19 Sep 17:33:08 17:36:07 15° 74° (ENE) 17:39:05 ?
UKube-1 19 Sep 17:33:18 17:36:47 24° 28° (NNE) 17:40:16 145.840 MHz, 145.915 MHz
AO-7 19 Sep 17:33:30 17:40:23 28° 279° (W) 17:47:17 29.400 - 29.500 MHz
MaSat-1 19 Sep 17:36:05 17:38:48 16° 247° (WSW) 17:41:18 437.345 MHz
Sapphire 19 Sep 17:36:46 17:42:11 67° 192° (SSW) 17:47:36 437.095 MHz 1200 baud AX-25 AFSK
JAS-2 19 Sep 17:44:30 17:49:27 44° 262° (W) 17:54:38 435.800 - 435.900 CW/SSB, 435.910 FM
Uosat F 19 Sep 17:48:24 17:51:28 16° 284° (WNW) 17:54:34 435.120 FM
KITSAT 1 19 Sep 17:53:40 17:57:00 13° 95° (E) 18:00:20 435.175 FM
PCSat 19 Sep 18:03:50 18:09:13 62° 199° (SSW) 18:14:35 145.825 MHz
HO-68 19 Sep 18:26:35 18:33:40 68° 46° (NE) 18:40:48 435.675 MHz FM
OPAL 19 Sep 18:31:20 18:36:37 79° 118° (ESE) 18:41:49 ?
FUNcube-1 19 Sep 18:41:58 18:45:45 26° 32° (NNE) 18:49:35 145.950 - 145.970 MHz USB
SO-67 19 Sep 18:51:37 18:54:54 39° 261° (W) 18:58:12 435.3500 MHz FM
Oscar 11 19 Sep 18:51:45 18:55:44 35° 44° (NE) 18:59:43 145.825 FM, Beacon 2401.500 USB
Saudisat 1A 19 Sep 18:53:20 18:57:01 26° 144° (SE) 19:00:43 436.775 MHz
Hamsat 19 Sep 18:56:46 18:59:51 19° 279° (W) 19:02:55 145.90 MHz
UKube-1 19 Sep 19:08:09 19:12:20 48° 50° (NE) 19:16:33 145.840 MHz, 145.915 MHz
STRAND 1 19 Sep 19:11:51 19:16:43 41° 98° (E) 19:21:35 ?
Sapphire 19 Sep 19:20:05 19:25:14 44° 216° (SW) 19:30:22 437.095 MHz 1200 baud AX-25 AFSK
JAS-2 19 Sep 19:33:03 19:36:12 16° 288° (WNW) 19:39:26 435.800 - 435.900 CW/SSB, 435.910 FM
AO-7 19 Sep 19:33:56 19:36:42 12° 308° (NW) 19:39:29 29.400 - 29.500 MHz
KITSAT 1 19 Sep 19:43:07 19:49:54 31° 121° (ESE) 19:56:43 435.175 FM
PCSat 19 Sep 19:47:09 19:52:06 36° 223° (SW) 19:57:01 145.825 MHz
